Location: Arbon
(43.0005°N, 0.7472°E)
Time: 03:35:00
(UTC+00:00)

Cosmos 1674 - Pass Details

Date: 07 August 2020
Orbit: 495 x 517 km, 82.5° (Epoch: 27 September)

Event Time Altitude Azimuth Distance (km) Brightness Sun altitude
Rises 01:34:16 0° 355° (N) 2,593 7.2 -27.1°
Reaches altitude 10° 01:36:25 10° 358° (N) 1,706 6.1 -26.9°
Enters shadow 01:38:53 38° 15° (NNE) 776 4.0 -26.7°
